EHI
12 8 5 3 1 0 0 0 0 0 0 0 0 0 0 0 0 0 0 0 0 0 0 0 1 1 1 1 1 0 0 0 0 0 1 2 2 2 2 1 0 0 0 0 1 2 2 1 0
9 6 5 3 1 0 0 0 0 0 0 0 0 0 0 0 0 0 0 0 0 0 0 1 2 2 2 2 2 1 0 0 0 1 2 3 2 1 1 1 0 0 0 1 2 2 1 0 0
5 5 4 2 0 0 0 0 0 0 0 0 0 0 0 0 0 0 0 0 0 0 0 1 2 3 3 3 3 2 1 0 0 1 2 2 1 1 1 0 0 0 0 1 2 2 0 0 0
2 3 2 1 0 0 0 0 0 0 0 0 0 0 0 0 0 0 0 0 0 1 0 1 2 3 3 3 3 2 1 0 0 0 1 1 1 1 1 0 0 0 0 1 2 2 1 0 0
2 2 1 0 0 0 0 0 0 0 0 0 0 0 0 0 0 0 0 0 0 0 0 0 1 1 2 2 1 1 0 0 0 1 1 1 1 2 1 0 0 0 0 1 2 3 2 1 0
1 1 0 0 0 0 0 0 0 0 0 0 0 0 0 0 0 0 0 0 0 0 0 0 0 0 1 1 0 0 0 0 0 1 1 1 2 3 2 0 0 0 0 1 2 3 2 1 0
1 1 0 0 0 0 0 0 0 0 0 0 0 0 0 0 0 0 0 0 0 0 0 0 0 0 0 0 0 0 0 0 0 1 1 1 2 2 1 0 0 0 0 0 1 1 2 2 1
1 1 0 0 0 0 0 0 0 0 0 0 0 0 0 0 0 0 0 0 0 0 0 0 0 0 0 0 1 1 0 0 0 0 0 0 1 1 0 0 0 0 0 0 0 0 1 2 2
0 0 0 0 0 0 0 0 0 0 0 0 0 0 0 0 0 0 0 0 0 0 0 0 0 0 0 0 1 1 0 0 0 0 0 0 0 0 0 0 0 0 0 0 0 0 0 1 1
0 0 0 0 0 0 0 0 0 0 0 0 0 0 0 0 0 0 0 0 0 0 0 0 0 0 0 0 0 0 0 0 0 0 0 1 1 0 1 1 1 0 0 0 0 0 0 0 0
0 0 0 0 0 0 0 0 0 0 0 0 0 0 0 0 0 0 0 0 0 0 0 0 0 0 0 0 0 0 0 0 0 0 0 1 1 1 1 1 1 0 0 0 0 0 0 0 0
0 0 0 0 0 0 0 0 0 0 0 0 0 0 0 0 0 0 0 0 0 0 0 0 0 0 0 0 0 0 0 0 0 0 0 1 1 1 0 0 0 0 0 0 0 0 0 0 0
0 0 0 0 0 0 0 0 0 0 0 0 0 0 0 0 0 0 0 0 0 0 0 0 0 0 1 1 1 0 0 0 1 1 0 0 0 0 0 0 0 0 0 0 0 0 0 0 0
0 0 0 1 0 0 0 0 0 0 0 0 0 0 0 0 0 0 0 0 0 0 0 0 0 2 2 2 1 0 0 0 0 1 1 1 0 0 0 0 0 0 0 1 0 0 0 1 1
0 0 0 0 0 0 0 0 0 0 0 0 0 0 0 0 0 0 0 0 0 0 0 0 1 3 4 3 1 0 0 0 0 0 1 1 0 0 0 0 0 0 0 1 0 0 0 1 2
0 0 0 0 0 0 0 0 0 0 0 0 0 0 0 0 1 1 1 2 1 1 2 2 2 4 4 3 2 1 0 0 0 0 0 1 1 1 0 1 1 1 1 2 1 1 0 1 1
0 0 0 0 0 0 0 0 0 0 0 0 0 0 0 1 2 2 3 3 2 2 4 5 4 4 4 4 3 1 0 0 0 0 0 1 2 2 1 1 2 2 2 3 3 2 1 1 2
0 0 0 0 0 0 0 0 0 0 0 0 0 0 1 1 3 3 3 3 3 4 6 8 8 7 6 5 4 2 1 0 0 0 0 1 2 2 1 1 1 2 1 2 2 2 2 3 4
0 0 0 0 0 0 0 0 0 1 1 1 2 2 3 3 3 3 4 4 5 7 10 13 14 13 11 8 5 4 2 1 0 0 1 2 3 3 1 0 0 1 1 1 1 2 3 4 5
0 0 0 0 0 0 0 1 2 2 2 2 3 5 6 6 5 5 7 8 9 11 14 17 18 18 16 12 8 6 5 4 2 2 3 4 5 5 2 1 1 2 3 3 3 3 4 4 3
0 0 0 0 0 0 0 2 3 3 3 3 4 5 7 6 7 9 11 13 13 14 16 19 21 22 20 16 13 10 9 8 5 5 5 6 7 5 3 3 3 5 5 6 6 6 5 4 4
0 0 0 0 0 0 0 1 2 3 3 3 4 5 5 5 6 9 12 13 13 14 16 20 25 26 23 19 15 13 12 10 8 8 8 7 6 4 3 4 5 6 7 7 7 7 6 6 6
0 0 0 0 0 0 0 0 1 1 1 2 3 4 4 4 5 8 11 12 11 12 15 21 28 30 26 22 19 17 14 11 10 9 9 8 5 3 3 3 4 6 7 7 8 8 6 6 6
0 0 0 0 0 0 0 0 0 0 1 1 2 3 3 3 5 8 10 11 11 12 14 21 30 32 29 25 24 23 19 16 14 12 10 8 5 3 3 4 4 5 6 7 8 8 7 6 6
0 0 0 0 0 0 0 0 0 1 1 1 2 2 3 3 5 10 11 12 13 13 14 20 29 33 30 27 26 28 25 21 17 14 10 7 6 4 4 5 6 7 7 7 8 9 9 8 8
0 0 0 0 0 0 0 0 1 3 3 3 3 3 4 4 7 11 13 14 15 15 16 19 26 30 29 27 26 28 26 20 17 15 12 9 7 6 4 5 7 8 8 8 9 10 10 10 10
0 0 0 0 0 0 0 0 2 6 7 6 5 6 6 6 8 12 15 16 18 18 19 20 25 29 29 27 27 26 23 19 17 16 13 12 10 7 5 4 6 7 9 10 11 11 10 10 9
0 0 0 0 0 0 0 0 2 7 9 8 8 9 11 11 13 16 18 19 20 19 20 21 24 28 27 26 25 23 20 20 18 15 13 13 12 8 5 5 6 8 11 13 13 13 11 9 8
0 0 0 0 0 0 0 0 2 4 7 8 9 11 16 19 21 23 23 22 20 19 19 21 24 25 25 25 24 21 19 18 18 15 12 12 11 9 8 8 9 11 13 14 14 13 11 9 8
0 0 0 0 0 0 1 1 1 2 5 7 8 12 19 24 26 27 27 24 21 19 20 21 23 23 24 25 24 20 18 17 16 15 13 13 12 10 9 11 12 13 14 14 14 13 11 9 9
Wind_Speed
12 10 7 6 3 6 12 10 9 8 8 8 8 7 8 10 8 7 5 4 3 5 6 8 8 8 9 9 9 9 9 10 10 10 11 12 12 12 12 13 13 13 13 14 14 14 15 14 14
10 7 6 4 3 9 11 9 10 10 8 6 7 7 8 9 8 6 5 4 4 5 7 9 9 9 9 9 9 9 10 11 11 12 12 13 12 12 13 13 13 13 13 14 15 14 14 14 14
8 7 5 2 10 11 11 10 10 9 7 5 6 7 7 8 7 5 6 5 4 6 7 11 9 9 9 9 9 10 10 11 12 12 13 13 13 13 13 13 13 13 13 14 14 14 14 14 14
6 6 2 6 13 12 10 9 8 8 8 6 6 8 8 8 5 6 7 5 6 7 8 12 8 9 9 9 9 9 10 11 12 12 13 13 13 13 13 13 13 13 13 13 14 13 13 13 13
6 2 5 10 13 11 10 8 5 7 7 7 7 10 10 8 7 8 7 6 7 8 8 11 8 8 9 9 9 9 10 11 12 12 12 12 12 13 13 13 13 13 13 13 13 13 12 12 12
4 1 6 11 12 9 9 6 6 9 9 8 8 10 9 6 8 7 7 6 7 8 8 11 10 8 8 8 9 9 10 11 11 11 12 12 12 12 12 13 13 13 12 12 12 12 12 11 11
2 5 9 11 10 10 8 6 6 8 8 8 6 8 8 8 8 7 7 6 7 7 7 7 9 9 8 8 9 10 10 10 10 11 11 11 12 12 12 12 12 12 12 12 11 11 11 10 10
3 2 9 10 10 11 8 7 7 7 9 7 3 6 9 9 8 8 8 7 7 7 7 6 7 7 7 9 10 10 10 10 10 10 10 10 11 11 11 11 11 11 11 11 11 10 10 9 9
4 3 10 10 9 10 9 8 8 7 9 7 7 9 12 12 9 8 8 8 7 6 5 5 7 6 6 7 9 8 9 8 7 8 9 6 6 8 8 11 10 10 10 10 9 9 8 7 9
1 7 12 8 9 10 9 8 8 8 9 10 11 12 12 11 9 8 7 8 8 6 6 5 5 6 5 5 5 4 5 6 4 5 5 5 5 5 6 10 9 8 8 8 8 6 6 5 6
4 8 9 8 8 10 10 9 6 8 9 9 12 13 12 10 8 7 7 6 7 6 6 6 5 4 4 4 3 3 3 3 4 5 4 4 4 4 4 4 5 5 5 5 7 5 3 3 3
5 7 6 8 9 9 9 9 7 7 10 10 12 13 11 10 8 7 7 6 6 5 5 5 6 4 3 3 3 3 2 3 3 4 3 3 3 3 3 2 3 2 2 3 2 2 3 3 3
6 7 8 8 8 8 9 8 8 9 10 11 12 12 11 9 8 7 6 6 6 5 5 5 4 4 3 2 1 2 2 3 3 3 3 2 2 3 3 2 2 1 2 3 2 2 3 2 2
7 9 9 9 9 8 8 8 7 10 11 12 12 11 10 8 8 7 6 6 5 5 5 5 5 5 3 3 1 1 2 2 2 3 3 2 2 3 2 3 2 2 1 2 2 2 2 2 2
9 9 9 7 7 7 7 8 7 11 12 12 11 10 9 8 7 6 6 6 6 5 5 5 5 5 4 3 2 2 2 2 2 3 3 2 2 3 2 2 2 2 2 2 2 2 2 2 2
8 7 6 7 6 6 7 6 10 12 12 11 11 10 9 8 8 7 6 6 5 5 5 5 4 6 5 3 1 1 2 3 2 2 2 2 2 2 1 1 2 2 2 2 2 2 2 2 2
7 4 4 7 7 6 7 4 11 12 12 11 11 10 10 9 9 8 7 7 6 6 6 6 4 5 5 4 3 2 2 2 2 2 2 2 1 2 1 1 2 2 2 2 2 3 2 2 2
4 3 3 3 6 7 6 3 9 12 12 11 11 10 10 10 9 9 8 7 7 7 7 6 6 5 5 4 3 2 2 2 2 2 2 1 1 2 1 2 2 1 1 1 2 2 2 1 2
3 3 2 2 3 6 6 5 7 11 12 12 11 11 11 10 10 9 9 8 8 8 8 7 6 6 5 4 3 3 3 2 2 2 2 1 1 2 1 1 2 1 1 1 2 2 3 3 2
6 5 3 3 3 5 4 6 6 11 13 12 11 11 11 11 10 10 10 9 9 9 9 8 8 7 7 4 3 2 2 1 2 1 2 1 1 1 2 1 1 1 2 2 2 2 2 2 3
8 6 3 2 3 5 5 6 7 9 11 11 11 11 11 11 12 12 11 11 10 10 10 8 8 8 7 6 4 3 3 3 3 3 2 1 1 1 0 1 0 0 1 2 2 3 3 2 2
8 5 5 5 6 3 4 3 5 8 10 12 12 12 12 12 12 12 12 12 11 11 10 9 9 8 8 7 5 5 3 2 2 1 2 2 1 1 1 1 0 1 1 1 3 2 2 3 2
5 4 5 6 7 5 5 6 3 6 8 10 11 12 12 12 12 12 12 12 11 10 10 10 10 9 8 7 6 5 4 2 2 2 3 1 1 1 0 1 0 1 1 0 1 1 3 2 2
6 7 6 8 8 7 4 7 1 3 4 6 9 11 11 12 12 12 12 11 11 10 10 10 10 9 9 8 7 6 4 3 3 3 3 2 2 1 1 1 0 1 1 0 1 2 2 2 2
11 10 8 8 8 5 2 6 2 1 2 4 6 9 11 11 12 12 12 13 12 12 11 11 11 10 9 9 8 7 6 5 5 4 3 2 2 2 1 0 0 0 0 0 1 1 1 2 2
13 13 10 7 6 4 5 5 1 2 2 3 5 7 9 11 11 12 13 13 12 12 12 11 11 10 10 9 8 6 6 5 4 4 3 2 1 1 2 1 1 0 0 1 0 1 1 1 2
12 12 10 9 8 8 5 4 4 3 4 5 6 7 8 10 11 12 12 12 13 12 12 12 11 10 10 9 8 7 6 4 3 4 4 2 2 2 3 2 1 1 0 1 1 1 1 1 1
8 9 8 10 8 9 7 8 4 4 4 5 6 7 7 9 10 11 11 12 12 11 11 11 11 10 10 10 8 7 7 6 5 4 3 2 2 1 2 2 2 1 1 1 1 1 0 1 0
9 11 10 9 9 9 7 4 1 3 3 4 5 6 7 8 10 10 10 10 11 11 11 11 11 10 9 9 8 7 6 6 6 5 4 4 2 2 2 2 1 1 0 0 1 1 0 1 1
11 11 12 10 9 9 9 3 4 2 2 3 3 5 6 7 8 9 10 10 10 10 10 11 11 10 10 9 8 8 7 6 6 6 5 4 3 3 3 2 2 2 1 1 1 1 1 1 1
Wind_Direction
172 179 205 231 215 77 64 62 59 70 68 63 61 50 51 42 30 63 81 88 78 85 90 96 82 84 81 81 79 77 77 82 86 94 98 101 102 105 112 112 112 112 112 112 112 112 113 114 114
174 185 223 239 52 73 69 63 67 66 79 87 74 64 64 62 55 88 109 98 94 87 87 84 83 84 81 81 80 77 79 83 87 91 96 100 102 105 109 111 111 110 110 110 112 112 112 114 114
178 222 261 50 56 59 73 74 82 88 85 79 78 59 49 58 69 91 102 111 101 89 92 88 80 82 81 79 80 80 81 85 88 92 95 99 100 102 104 108 110 109 110 110 112 112 112 113 114
203 216 218 65 69 63 73 85 96 99 89 75 88 82 68 54 64 97 112 118 110 104 97 93 82 81 80 79 79 80 82 85 88 92 95 96 98 100 101 105 108 108 110 111 112 112 113 114 114
236 249 87 76 73 74 77 83 82 79 79 81 84 90 80 68 84 102 113 115 108 103 100 97 87 80 79 79 82 84 85 87 91 94 94 96 98 100 101 102 106 109 107 107 110 111 112 114 115
234 236 66 75 81 85 87 87 87 85 91 93 94 96 85 99 105 107 108 103 99 100 99 103 103 87 79 78 87 87 88 89 92 93 93 95 98 99 101 102 105 112 111 109 110 111 111 111 115
323 51 69 80 91 91 84 86 81 91 95 86 90 97 107 113 114 116 109 101 94 95 96 99 112 111 101 85 89 89 87 89 94 94 95 96 97 99 100 101 108 115 115 113 110 110 110 113 117
311 74 81 80 85 89 101 96 85 88 89 95 94 103 121 125 127 122 117 109 103 100 97 100 96 97 109 110 98 92 87 87 94 98 100 106 109 108 109 111 109 118 117 115 112 111 110 114 118
258 71 71 71 80 99 119 114 97 94 104 96 80 90 114 128 134 132 126 117 108 101 100 97 100 101 99 100 106 112 107 99 110 113 113 122 111 110 116 97 104 110 113 112 112 113 118 128 132
302 66 69 66 79 108 122 113 115 122 113 110 106 106 122 136 140 136 130 126 119 114 111 102 93 93 97 95 103 102 102 98 90 83 93 98 95 91 96 102 104 105 112 118 117 125 154 193 149
61 70 85 92 97 113 121 117 121 120 114 118 128 134 140 141 142 137 127 121 116 123 114 113 105 104 102 100 99 88 90 92 94 85 87 91 103 113 115 121 128 130 139 137 134 162 161 129 99
94 85 94 104 114 121 116 117 115 95 95 118 131 139 144 149 143 138 132 129 125 123 119 114 116 110 90 74 92 108 104 95 83 87 82 99 103 103 107 105 104 125 129 116 129 118 105 103 112
113 103 105 114 122 119 122 116 109 107 113 127 135 144 151 153 145 139 133 133 134 138 137 127 120 119 123 113 73 84 75 79 93 86 81 82 111 112 103 96 102 110 115 134 125 108 101 107 119
113 117 118 125 126 135 132 126 130 123 134 140 149 156 159 157 154 150 153 153 152 152 144 135 143 136 138 131 112 80 83 84 66 80 77 74 92 103 117 134 123 110 108 90 103 115 114 105 85
139 136 135 139 148 148 157 143 139 140 150 154 160 164 166 168 168 169 166 169 166 163 155 153 152 144 147 140 144 118 100 90 74 75 86 95 107 110 135 126 138 123 121 123 133 125 130 135 125
175 180 153 147 168 166 224 126 144 157 165 165 168 171 179 180 185 181 178 180 178 171 163 174 168 148 148 142 127 99 82 82 86 86 94 95 93 126 143 121 116 121 146 144 142 154 127 120 118
195 196 144 147 180 183 228 128 147 169 176 175 178 180 185 184 192 189 187 186 186 182 177 176 172 161 152 145 147 132 102 89 103 97 80 94 117 145 169 114 100 159 154 156 169 122 140 126 121
190 195 178 158 169 206 223 178 155 179 188 185 184 187 189 192 193 188 189 187 185 184 184 181 178 172 168 161 158 153 130 131 119 102 85 102 144 138 175 153 129 179 148 143 118 129 141 136 140
226 231 212 143 154 218 228 221 182 183 196 195 192 191 193 195 188 187 189 188 186 184 184 184 185 175 179 175 182 164 154 152 135 125 94 102 119 126 189 114 133 190 144 146 160 158 157 157 142
224 233 213 149 155 236 238 232 206 192 203 204 200 197 197 193 187 188 191 190 189 187 186 185 186 183 186 175 175 160 138 162 141 113 107 117 125 174 168 149 188 145 152 165 172 182 198 179 185
221 237 241 203 175 213 248 209 194 194 207 208 210 207 202 198 194 190 193 195 191 189 190 189 186 181 186 178 181 166 171 192 160 149 137 120 110 138 59 152 218 175 208 158 189 201 209 211 213
220 223 235 214 223 200 245 263 163 185 200 207 209 208 204 199 197 194 192 193 195 192 188 187 183 183 181 186 192 191 200 181 133 146 122 131 123 108 126 152 159 253 248 157 223 189 236 231 225
222 191 216 228 247 254 220 269 137 168 200 203 204 205 203 198 197 196 195 192 194 191 185 181 181 183 184 189 189 201 209 184 155 153 136 163 130 122 88 87 85 265 262 195 269 232 257 247 257
168 177 195 226 241 244 248 270 238 164 207 194 192 199 199 196 193 195 194 189 190 188 184 179 179 183 186 190 191 200 198 196 176 178 164 179 162 165 144 161 330 273 315 209 237 248 236 267 282
200 208 212 216 220 232 184 258 291 72 182 199 191 190 194 195 193 190 190 189 188 189 187 183 180 184 186 190 191 193 193 195 194 196 183 197 174 163 147 148 86 335 21 271 261 238 278 262 254
213 227 235 242 241 217 187 245 274 89 145 182 189 191 188 190 190 190 189 189 189 189 186 186 183 185 186 188 186 187 191 199 192 190 202 187 172 141 136 156 165 192 268 276 259 261 232 229 249
209 227 249 251 253 254 231 233 225 188 195 185 179 179 183 186 186 186 186 188 188 187 186 187 184 185 186 184 181 185 189 199 185 177 196 183 172 168 164 181 181 190 253 303 268 283 285 211 223
247 223 223 242 244 248 233 232 233 202 197 180 181 179 175 177 180 182 183 185 183 183 183 184 183 184 183 182 185 179 181 183 183 192 178 162 156 150 172 181 178 191 209 234 264 229 141 237 221
197 211 226 239 250 255 248 229 165 214 204 187 178 175 174 174 174 174 177 180 178 177 177 179 181 182 182 182 181 181 179 179 182 184 183 176 171 166 180 197 198 200 208 239 243 269 212 225 211
220 220 216 226 230 244 264 244 105 136 179 169 161 159 165 169 167 168 171 173 176 178 179 180 181 182 181 178 177 180 181 181 184 181 181 174 174 181 183 194 200 207 183 214 231 239 220 214 202